Aoxiang-1 (42735 NORAD) Tracking and Keplerian Element Data

This shows tracking and keplerian element data for the satellite.

Feedback or suggestion? Click here.




ElementValue
Catalog42735
NameAoxiang-1
Epoch Orbit10545
Epoch Day80.85267752
Epoch Year2019
RAAN13.8773
Inclination51.6307
Eccentricity0.0004172
Argument of Perigee170.8592
Mean Anonmoly242.159
Mean Motion15.84828243
Decay Rate0.00068623
L11 42735U 98067MQ 19080.85267752 .00068623 00000-0 28883-3 0 9998
L22 42735 51.6307 13.8773 0004172 170.8592 242.1590 15.84828243105453

Live tracking and technical data element details for Aoxiang-1 (NORAD 42735). Aoxiang-1 can be tracked NOW for your location showing map with azimuth and elevation plus other details from your city location.

Track the satellite on the map from your city or location and see movement details for azimuth, elevation, latitude, longitude, range, height, and movement on the map or in text.







IsCatalogInMostPopularTable: catalog: 42735, numindb: 220
Update: records affected: 1



GetName: 42735 Aoxiang-1

Hit Count: updated at: Sat, 23 Mar 2019 02:07:49 GMT